Holbrook, NY

11:59 PM EST on February 26, 2017 (GMT -0500)
Long Island Mac Arthur

Weather History for KISP - March, 2013

Change the Weather History Date:

Sunday, March 31, 2013

  Actual Average Record
Temperature  
Mean Temperature 42 °F 44 °F  
Max Temperature 53 °F 52 °F 73 °F (1999)
Min Temperature 31 °F 36 °F 28 °F (1991)
Degree Days  
Heating Degree Days 23 21  
Month to date heating degree days 820 796  
Since 1 July heating degree days 4433 4692  
Cooling Degree Days 0 0  
Month to date cooling degree days 0 0  
Year to date cooling degree days 0 0  
Moisture  
Dew Point 36 °F    
Average Humidity 71    
Maximum Humidity 92    
Minimum Humidity 50    
Precipitation  
Precipitation 0.13 in 0.14 in 2.52 in (1987)
Month to date precipitation 2.64 4.44  
Year to date precipitation 10.77 11.34  
Snow  
Snow 0.00 in 0.10 in 4.60 in (2014)
Month to date snowfall 7.4 4.5  
Since 1 July snowfall 46.9 24.2  
Snow Depth 0.00 in    
Sea Level Pressure  
Sea Level Pressure 29.94 in    
Wind  
Wind Speed 10 mph (SE)    
Max Wind Speed 23 mph    
Max Gust Speed 30 mph    
Visibility 7 miles    
Events Rain    
T = Trace of Precipitation, MM = Missing Value Source: NWS Daily Summary

Daily Weather History Graph

Daily Weather History Graph

Search for Another Location

Airport or City:

Trip Planner

Search our weather history database for the weather conditions in past years. The results will help you decide how hot, cold, wet, or windy it might be!

Date:

Astronomy

Mar. 31, 2013 Rise Set
Actual Time 6:37 AM EDT 7:16 PM EDT
Civil Twilight 6:09 AM EDT 7:44 PM EDT
Nautical Twilight 5:36 AM EDT 8:16 PM EDT
Astronomical Twilight 5:03 AM EDT 8:50 PM EDT
Moon No Moon Rise 9:20 AM EDT (3/31)
Length of Visible Light 13h 34m
Length of Day
12h 39m
Waning Gibbous, 78% of the Moon is Illuminated
Mar 31
Waning Gibbous
Apr 3
Last Quarter
Apr 10
New
Apr 18
First Quarter
Apr 25
Full

Hourly Weather History & Observations

Time (EDT) Temp. Windchill Dew Point Humidity Pressure Visibility Wind Dir Wind Speed Gust Speed Precip Events Conditions
12:56 AM 35.1 °F 31.0 °F 30.9 °F 85% 30.12 in 10.0 mi North 4.6 mph - N/A   Clear
1:56 AM 35.1 °F - 30.9 °F 85% 30.11 in 8.0 mi Calm Calm - N/A   Clear
2:56 AM 35.1 °F - 30.9 °F 85% 30.11 in 10.0 mi Calm Calm - N/A   Clear
3:56 AM 30.9 °F - 28.0 °F 89% 30.10 in 4.0 mi Calm Calm - N/A   Clear
4:56 AM 33.1 °F - 28.9 °F 85% 30.10 in 8.0 mi Calm Calm - N/A   Clear
5:56 AM 32.0 °F - 28.9 °F 88% 30.10 in 6.0 mi Calm Calm - N/A   Scattered Clouds
6:56 AM 33.1 °F - 28.9 °F 85% 30.10 in 3.0 mi Calm Calm - N/A   Scattered Clouds
7:56 AM 37.0 °F - 35.1 °F 93% 30.10 in 6.0 mi Calm Calm - N/A   Mostly Cloudy
8:56 AM 46.0 °F 43.1 °F 37.9 °F 73% 30.10 in 10.0 mi South 5.8 mph - N/A   Mostly Cloudy
9:56 AM 48.0 °F - 34.0 °F 58% 30.10 in 10.0 mi South 8.1 mph - N/A   Mostly Cloudy
10:56 AM 51.1 °F - 35.1 °F 54% 30.09 in 10.0 mi South 9.2 mph - N/A   Overcast
11:56 AM 51.1 °F - 36.0 °F 56% 30.08 in 10.0 mi SSW 13.8 mph - N/A   Overcast
12:56 PM 52.0 °F - 37.0 °F 57% 30.05 in 10.0 mi South 15.0 mph - N/A   Overcast
1:56 PM 52.0 °F - 35.1 °F 53% 30.02 in 10.0 mi SSE 16.1 mph - N/A   Overcast
2:56 PM 51.1 °F - 33.1 °F 50% 29.99 in 10.0 mi SSE 13.8 mph 21.9 mph N/A   Overcast
3:56 PM 50.0 °F - 36.0 °F 59% 29.95 in 10.0 mi SE 13.8 mph - 0.00 in Rain Light Rain
4:56 PM 50.0 °F - 35.1 °F 57% 29.92 in 10.0 mi SE 15.0 mph - 0.00 in   Overcast
5:56 PM 50.0 °F - 36.0 °F 59% 29.90 in 10.0 mi SE 15.0 mph 24.2 mph N/A   Overcast
6:56 PM 48.9 °F - 37.0 °F 64% 29.85 in 10.0 mi SE 17.3 mph 21.9 mph N/A   Overcast
8:56 PM 46.0 °F 38.8 °F 41.0 °F 83% 29.75 in 5.0 mi ESE 18.4 mph 29.9 mph 0.04 in Rain Light Rain
9:35 PM 44.6 °F 37.2 °F 41.0 °F 87% 29.73 in 3.0 mi ESE 17.3 mph 26.5 mph 0.03 in Rain Light Rain
9:56 PM 45.0 °F 36.6 °F 41.0 °F 86% 29.70 in 3.0 mi ESE 21.9 mph 26.5 mph 0.04 in Rain Light Rain
10:12 PM 44.6 °F 37.2 °F 41.0 °F 87% 29.69 in 3.0 mi ESE 17.3 mph 26.5 mph 0.00 in Rain Light Rain
10:27 PM 44.6 °F 36.9 °F 42.8 °F 93% 29.67 in 3.0 mi ESE 18.4 mph - 0.01 in Rain Light Rain
10:56 PM 46.0 °F 40.2 °F 43.0 °F 89% 29.66 in 3.0 mi ESE 12.7 mph - 0.02 in Rain Light Rain
11:01 PM 46.4 °F 41.9 °F 42.8 °F 87% 29.65 in 1.5 mi ESE 9.2 mph - 0.00 in   Light Drizzle
11:56 PM 46.0 °F 41.9 °F 45.0 °F 96% 29.64 in 1.0 mi SW 8.1 mph - 0.00 in   Light Drizzle